Hourly Weather Holodnaya

Today, 13 April, Tuesday

Time Temperature Precipitation Wind Pressure Humidity
00:00 -1°C° 0 mm 1 mps 724 mmHg 89%
01:00 -1°C° 0 mm 1 mps 724 mmHg 93%
02:00 -1°C° 0 mm 1 mps 723 mmHg 94%
03:00 -2°C° 0 mm 1 mps 723 mmHg 94%
04:00 -2°C° 0 mm 1 mps 723 mmHg 95%
05:00 -1°C° 0 mm 1 mps 723 mmHg 89%
06:00 0°C° 0 mm 1 mps 723 mmHg 82%
07:00 +1°C° 0 mm 1 mps 722 mmHg 76%
08:00 +3°C° 0 mm 1 mps 722 mmHg 66%
09:00 +5°C° 0 mm 1 mps 721 mmHg 56%
10:00 +7°C° 0 mm 1 mps 720 mmHg 45%
11:00 +6°C° 0 mm 2 mps 719 mmHg 45%
12:00 +7°C° 0 mm 3 mps 718 mmHg 44%
13:00 +8°C° 0 mm 3 mps 718 mmHg 44%
14:00 +7°C° 0 mm 3 mps 717 mmHg 47%
15:00 +7°C° 0 mm 3 mps 717 mmHg 49%
16:00 +5°C° 0 mm 3 mps 717 mmHg 52%
17:00 +5°C° 0 mm 2 mps 717 mmHg 60%
18:00 +4°C° 0 mm 2 mps 717 mmHg 67%
19:00 +4°C° 0 mm 1 mps 717 mmHg 75%
20:00 +3°C° 0.3 mm 1 mps 717 mmHg 82%
21:00 +2°C° 0.3 mm 2 mps 717 mmHg 89%
22:00 +1°C° 0.3 mm 3 mps 718 mmHg 95%
23:00 0°C° 0.7 mm 4 mps 718 mmHg 94%

Tomorrow, 14 April, Wednesday

Time Temperature Precipitation Wind Pressure Humidity
00:00 -1°C° 0.7 mm 4 mps 718 mmHg 93%
01:00 -1°C° 0.7 mm 5 mps 718 mmHg 92%
02:00 -2°C° 0.2 mm 4 mps 718 mmHg 91%
03:00 -2°C° 0.2 mm 4 mps 718 mmHg 89%
04:00 -2°C° 0.2 mm 3 mps 718 mmHg 88%
05:00 -1°C° 0.1 mm 3 mps 719 mmHg 85%
06:00 -1°C° 0.1 mm 3 mps 719 mmHg 82%
07:00 -1°C° 0.1 mm 3 mps 720 mmHg 79%
08:00 -1°C° 0.1 mm 3 mps 720 mmHg 74%
09:00 -1°C° 0.1 mm 4 mps 720 mmHg 69%
10:00 -1°C° 0.1 mm 4 mps 720 mmHg 64%
11:00 0°C° 0.1 mm 4 mps 720 mmHg 60%
12:00 +1°C° 0.1 mm 5 mps 719 mmHg 56%
13:00 +1°C° 0.1 mm 5 mps 719 mmHg 52%
14:00 +1°C° 0.1 mm 5 mps 719 mmHg 51%
15:00 +1°C° 0.1 mm 5 mps 719 mmHg 50%
16:00 +1°C° 0.1 mm 5 mps 718 mmHg 50%
17:00 0°C° 0.1 mm 4 mps 718 mmHg 56%
18:00 0°C° 0.1 mm 3 mps 719 mmHg 63%
19:00 -1°C° 0.1 mm 2 mps 719 mmHg 69%
20:00 -2°C° 0 mm 2 mps 719 mmHg 73%
21:00 -3°C° 0 mm 2 mps 719 mmHg 78%
22:00 -4°C° 0 mm 2 mps 719 mmHg 82%
23:00 -4°C° 0 mm 2 mps 718 mmHg 83%

Day after tomorrow, 15 April, Thursday

Time Temperature Precipitation Wind Pressure Humidity
00:00 -5°C° 0 mm 2 mps 718 mmHg 84%
01:00 -5°C° 0 mm 2 mps 717 mmHg 85%
02:00 -5°C° 0 mm 2 mps 717 mmHg 85%
03:00 -4°C° 0 mm 2 mps 716 mmHg 84%
04:00 -2°C° 0 mm 1 mps 716 mmHg 83%
05:00 -1°C° 0 mm 1 mps 715 mmHg 78%
06:00 -2°C° 0 mm 2 mps 715 mmHg 72%
07:00 -1°C° 0 mm 2 mps 714 mmHg 67%
08:00 +1°C° 0.3 mm 2 mps 714 mmHg 72%
09:00 +1°C° 0.3 mm 2 mps 714 mmHg 78%
10:00 0°C° 0.3 mm 3 mps 714 mmHg 84%
11:00 -1°C° 1.1 mm 4 mps 714 mmHg 85%
12:00 -1°C° 1.1 mm 4 mps 715 mmHg 86%
13:00 0°C° 1.1 mm 5 mps 715 mmHg 87%
14:00 0°C° 0.4 mm 5 mps 715 mmHg 78%
15:00 +1°C° 0.4 mm 6 mps 716 mmHg 69%
16:00 +1°C° 0.4 mm 6 mps 716 mmHg 61%
17:00 0°C° 0.2 mm 5 mps 717 mmHg 65%
18:00 -1°C° 0.2 mm 4 mps 718 mmHg 69%
19:00 -3°C° 0.2 mm 4 mps 719 mmHg 73%
20:00 -4°C° 0.1 mm 3 mps 719 mmHg 77%
21:00 -4°C° 0.1 mm 3 mps 720 mmHg 81%
22:00 -4°C° 0.1 mm 2 mps 721 mmHg 85%
23:00 -5°C° 0 mm 2 mps 721 mmHg 87%

16 April, Friday

Time Temperature Precipitation Wind Pressure Humidity
00:00 -5°C° 0 mm 2 mps 721 mmHg 88%
01:00 -6°C° 0 mm 2 mps 721 mmHg 90%
02:00 -3°C° 0 mm 1 mps 721 mmHg 90%
03:00 -3°C° 0 mm 1 mps 721 mmHg 91%
04:00 -3°C° 0 mm 1 mps 721 mmHg 92%
05:00 -2°C° 0 mm 1 mps 721 mmHg 87%
06:00 -1°C° 0 mm 1 mps 721 mmHg 82%
07:00 +1°C° 0 mm 1 mps 721 mmHg 78%
08:00 +1°C° 0 mm 2 mps 721 mmHg 71%
09:00 +3°C° 0 mm 2 mps 721 mmHg 64%
10:00 +4°C° 0 mm 2 mps 721 mmHg 57%
11:00 +5°C° 0 mm 2 mps 720 mmHg 56%
12:00 +6°C° 0 mm 2 mps 720 mmHg 56%
13:00 +7°C° 0 mm 2 mps 719 mmHg 56%
14:00 +8°C° 0 mm 2 mps 719 mmHg 55%
15:00 +8°C° 0 mm 2 mps 718 mmHg 54%
16:00 +9°C° 0 mm 2 mps 718 mmHg 53%
17:00 +7°C° 0 mm 2 mps 718 mmHg 62%
18:00 +5°C° 0 mm 2 mps 718 mmHg 70%
19:00 +4°C° 0 mm 1 mps 718 mmHg 79%
20:00 +3°C° 0 mm 2 mps 718 mmHg 78%
21:00 +2°C° 0 mm 2 mps 718 mmHg 77%
22:00 +2°C° 0 mm 2 mps 717 mmHg 77%
23:00 +2°C° 0 mm 2 mps 717 mmHg 76%

17 April, Saturday

Time Temperature Precipitation Wind Pressure Humidity
00:00 +2°C° 0 mm 2 mps 717 mmHg 76%
01:00 +1°C° 0 mm 2 mps 716 mmHg 76%
02:00 +1°C° 0 mm 2 mps 716 mmHg 77%
03:00 +1°C° 0 mm 2 mps 716 mmHg 78%
04:00 +1°C° 0 mm 2 mps 715 mmHg 79%
05:00 +3°C° 0 mm 1 mps 715 mmHg 75%
06:00 +5°C° 0 mm 1 mps 715 mmHg 71%
07:00 +6°C° 0 mm 1 mps 715 mmHg 67%
08:00 +8°C° 0 mm 1 mps 715 mmHg 62%
09:00 +10°C° 0 mm 1 mps 715 mmHg 56%
10:00 +12°C° 0 mm 1 mps 714 mmHg 51%
11:00 +13°C° 0 mm 1 mps 714 mmHg 48%
12:00 +15°C° 0 mm 1 mps 713 mmHg 45%
13:00 +16°C° 0 mm 1 mps 713 mmHg 43%
14:00 +16°C° 0 mm 1 mps 712 mmHg 43%
15:00 +16°C° 0 mm 1 mps 712 mmHg 43%
16:00 +16°C° 0 mm 1 mps 711 mmHg 43%
17:00 +13°C° 0 mm 1 mps 711 mmHg 51%
18:00 +11°C° 0 mm 1 mps 711 mmHg 58%
19:00 +7°C° 0 mm 2 mps 710 mmHg 66%
20:00 +8°C° 0 mm 1 mps 710 mmHg 67%
21:00 +7°C° 0 mm 1 mps 710 mmHg 68%
22:00 +6°C° 0 mm 1 mps 710 mmHg 69%
23:00 +6°C° 0 mm 1 mps 710 mmHg 70%

18 April, Sunday

Time Temperature Precipitation Wind Pressure Humidity
00:00 +5°C° 0 mm 1 mps 710 mmHg 72%
01:00 +5°C° 0 mm 1 mps 709 mmHg 74%
02:00 +5°C° 0 mm 1 mps 709 mmHg 74%
03:00 +5°C° 0 mm 1 mps 709 mmHg 74%
04:00 +4°C° 0 mm 1 mps 709 mmHg 74%
05:00 +6°C° 0 mm 1 mps 709 mmHg 70%
06:00 +8°C° 0 mm 1 mps 709 mmHg 66%
07:00 +10°C° 0 mm 1 mps 709 mmHg 62%
08:00 +11°C° 0 mm 1 mps 709 mmHg 59%
09:00 +12°C° 0 mm 2 mps 710 mmHg 56%
10:00 +12°C° 0 mm 3 mps 710 mmHg 53%
11:00 +12°C° 0 mm 4 mps 711 mmHg 57%
12:00 +10°C° 0 mm 6 mps 712 mmHg 61%
13:00 +10°C° 0 mm 7 mps 713 mmHg 64%
14:00 +7°C° 0.1 mm 6 mps 714 mmHg 73%
15:00 +5°C° 0.1 mm 5 mps 715 mmHg 82%
16:00 +3°C° 0.1 mm 4 mps 716 mmHg 91%
17:00 +3°C° 0.1 mm 3 mps 717 mmHg 92%
18:00 +2°C° 0.1 mm 3 mps 717 mmHg 94%
19:00 +3°C° 0.1 mm 2 mps 718 mmHg 95%
20:00 +3°C° 0 mm 2 mps 718 mmHg 95%
21:00 +2°C° 0 mm 2 mps 718 mmHg 95%
22:00 +3°C° 0 mm 1 mps 719 mmHg 95%
23:00 +3°C° 0 mm 1 mps 719 mmHg 94%
Show more